Printer-friendly version

IAU Minor Planet Center

Minor Planet Center

MPEC 2000-E53: 2000 ES70

The following Minor Planet Electronic Circular may be linked-to from your own Web pages, but must not otherwise be redistributed electronically.


Read MPEC 2000-E52 Read MPEC 2000-E54


M.P.E.C. 2000-E53                                Issued 2000 Mar. 13, 18:40 UT

     The Minor Planet Electronic Circulars contain information on unusual
         minor planets and routine data on comets.  They are published
   on behalf of Commission 20 of the International Astronomical Union by the
          Minor Planet Center, Smithsonian Astrophysical Observatory,
                          Cambridge, MA 02138, U.S.A.

             Prepared using the Tamkin Foundation Computer Network

             BMARSDEN@CFA.HARVARD.EDU or GWILLIAMS@CFA.HARVARD.EDU
          URL http://cfa-www.harvard.edu/iau/mpc.html  ISSN 1523-6714

                                   2000 ES70

Observations:
     K00E70S* C2000 03 06.45859 11 45 50.14 -09 20 25.4          16.5        608
     K00E70S  C2000 03 06.46945 11 45 49.66 -09 19 51.1          16.5        608
     K00E70S  C2000 03 06.48024 11 45 49.20 -09 19 17.4          16.6        608
     K00E70S  C2000 03 07.42467 11 45 15.78 -08 29 41.1          17.0        608
     K00E70S  C2000 03 07.43569 11 45 15.24 -08 29 06.0          17.4        608
     K00E70S  C2000 03 07.44590 11 45 14.83 -08 28 33.7          17.3        608
     K00E70S  C2000 03 09.30331 11 44 07.17 -06 50 56.7          16.8        704
     K00E70S  C2000 03 09.31698 11 44 06.59 -06 50 13.9          17.2        704
     K00E70S  C2000 03 09.33110 11 44 05.78 -06 49 28.1          18.4        704
     K00E70S  C2000 03 09.34432 11 44 05.41 -06 48 47.6          17.4        704
     K00E70S  C2000 03 10.48850 11 43 23.26 -05 48 43.6          17.8        608
     K00E70S  C2000 03 10.49940 11 43 22.77 -05 48 08.5          17.0        608
     K00E70S  C2000 03 10.51017 11 43 22.28 -05 47 35.0          16.9        608
     K00E70S  C2000 03 11.00169 11 43 04.30 -05 21 56.2          16.9 R      151
     K00E70S  C2000 03 11.00522 11 43 04.43 -05 21 46.8          17.2 R      151
     K00E70S  C2000 03 11.00794 11 43 04.18 -05 21 38.8          17.0 R      151
     K00E70S  C2000 03 11.01072 11 43 04.12 -05 21 29.4          17.7 R      151
     K00E70S  C2000 03 11.02264 11 43 03.57 -05 20 51.8          16.7 R      151
     K00E70S  C2000 03 11.05335 11 43 02.43 -05 19 13.2          16.6 R      620
     K00E70S  C2000 03 11.05810 11 43 02.21 -05 18 58.7          16.5 R      620
     K00E70S  C2000 03 11.06215 11 43 02.07 -05 18 46.2          16.5 R      620
     K00E70S  C2000 03 11.28732 11 42 54.21 -05 06 59.5          16.1 R      858
     K00E70S  C2000 03 11.28924 11 42 54.11 -05 06 53.4          16.3 R      858
     K00E70S  C2000 03 11.29116 11 42 54.05 -05 06 47.5          16.1 R      858
     K00E70S  C2000 03 11.29300 11 42 53.98 -05 06 41.7          16.3 R      858
     K00E70S  C2000 03 11.32454 11 42 52.76 -05 05 03.2                      670
     K00E70S  C2000 03 11.38551 11 42 50.15 -05 01 52.6                      670
     K00E70S  C2000 03 11.45880 11 42 47.04 -04 58 02.9                      670
     K00E70S  C2000 03 11.84372 11 42 34.14 -04 38 02.6          16.3 R      046
     K00E70S  C2000 03 11.84516 11 42 34.08 -04 37 58.0                      046
     K00E70S  C2000 03 11.84597 11 42 34.05 -04 37 55.3                      046
     K00E70S  C2000 03 11.84751 11 42 33.98 -04 37 50.1                      046
     K00E70S  C2000 03 11.84906 11 42 33.93 -04 37 45.6                      046
     K00E70S  C2000 03 11.84998 11 42 33.89 -04 37 43.0                      046
     K00E70S  C2000 03 12.20078 11 42 21.08 -04 19 26.5          16.0 R      858
     K00E70S  C2000 03 12.20322 11 42 20.97 -04 19 18.9          16.3 R      858
     K00E70S  C2000 03 12.20617 11 42 20.86 -04 19 09.9          16.4 R      858
     K00E70S  C2000 03 12.20941 11 42 20.73 -04 18 59.3          16.4 R      858
     K00E70S  C2000 03 12.38862 11 42 13.27 -04 09 43.0                      670
     K00E70S  C2000 03 12.39056 11 42 13.18 -04 09 36.9                      670
     K00E70S  C2000 03 12.64127 11 42 04.31 -03 56 37.7                      900
     K00E70S  C2000 03 12.65015 11 42 03.88 -03 56 09.4          17.0 V      900
     K00E70S  C2000 03 12.84191 11 41 57.60 -03 46 17.0          16.8 V      104
     K00E70S  C2000 03 12.84311 11 41 57.54 -03 46 13.3                      104
     K00E70S  C2000 03 12.84433 11 41 57.50 -03 46 09.3                      104
     K00E70S  C2000 03 12.89943 11 41 55.23 -03 43 18.6          17.6 R      151
     K00E70S  C2000 03 12.90590 11 41 54.99 -03 42 59.6          17.8 R      151
     K00E70S  C2000 03 12.90909 11 41 54.89 -03 42 50.6          17.9 R      151
     K00E70S  C2000 03 12.91377 11 41 54.60 -03 42 35.7          17.2 R      151
     K00E70S  C2000 03 12.91535 11 41 54.67 -03 42 30.8          16.9 R      151
     K00E70S  C2000 03 12.91708 11 41 54.56 -03 42 24.5          17.7 R      151
     K00E70S  C2000 03 13.21946 11 41 43.76 -03 26 47.7          16.0 V      713
     K00E70S  C2000 03 13.23335 11 41 43.11 -03 26 05.0          16.1 V      713
     K00E70S  C2000 03 13.24028 11 41 42.79 -03 25 42.7          15.8 V      713
     K00E70S  C2000 03 13.24571 11 41 42.72 -03 25 24.0          17.2 R      703
     K00E70S  C2000 03 13.25069 11 41 42.35 -03 25 11.2          16.2 V      713
     K00E70S  C2000 03 13.25087 11 41 42.41 -03 25 08.8          17.1 R      703
     K00E70S  C2000 03 13.25569 11 41 42.29 -03 24 53.4          17.3 R      703
     K00E70S  C2000 03 13.26355 11 41 41.99 -03 24 29.1          16.7 R      703
     K00E70S  C2000 03 13.29032 11 41 40.40 -03 23 07.9          17.7 R      850
     K00E70S  C2000 03 13.30069 11 41 39.97 -03 22 38.3          17.6 R      850
     K00E70S  C2000 03 13.31007 11 41 39.54 -03 22 07.0          17.5 R      850

Observer details:
046 Klet.  Observers J. Ticha, M. Tichy.  0.57-m f/5.2 reflector + CCD.
104 San Marcello Pistoiese.  Observers L. Tesi, A. Boattini, M. Tombelli.
    Measurers G. Forti, L. Tesi, A. Boattini, M. Tombelli.  0.40-m f/5
    reflector + CCD.
151 Eschenberg Observatory, Winterthur.  Observer M. Griesser.  0.25-m f/8.0
    reflector + CCD.
608 Haleakala-NEAT/MSSS.  Observers E. F. Helin, S. Pravdo, K. Lawrence,
    P. Kervin, D. Talent, R. Maeda, P. Tanner.  1.2-m reflector + CCD.
620 Observatorio Astronomico de Mallorca.  Observers A. Lopez, R. Pacheco.
    0.30-m f/3.3 Schmidt-Cassegrain + CCD.
670 Camarillo.  Observer J. E. Rogers.  0.30-m f/6.7 Helin Telescope + CCD.
703 Catalina Sky Survey.  Observers G. A. Esquerdo,  T. B. Spahr.  0.41-m f/3
    Schmidt + CCD.
704 Lincoln Laboratory ETS, New Mexico.  Observers M. Blythe, F. Shelly,
    M. Bezpalko, M. Elowitz, R. Huber.  Measurers J. Stuart, H. Viggh,
    R. Sayer, J. B. Evans.  1.0-m f/2.15 reflector + CCD.
713 Thornton.  Observer R. A. Koff.  0.20-m f/10 Schmidt-Cassegrain + CCD.
850 Cordell-Lorenz Observatory, Sewanee.  Observer D. T. Durig.  0.3-m f/5.75
    Schmidt-Cassegrain + CCD.
858 Tebbutt Observatory, Edgewood.  Observer F. B. Zoltowski.  0.3-m f/3.3
    Schmidt-Cassegrain + CCD.
900 Moriyama.  Observer Y. Ikari.  0.25-m f/6.3 reflector + CCD.

Orbital elements:
2000 ES70
Epoch 2000 Feb. 26.0 TT = JDT 2451600.5                 Williams
M  35.78425              (2000.0)            P               Q
n   0.40861464     Peri.  281.14637     -0.16087368     -0.98685304
a   1.7985676      Node   177.91356     +0.98657760     -0.16034296
e   0.3170903      Incl.   25.22484     -0.02800543     +0.02027838
P   2.41           H   17.1           G   0.15
From 62 observations 2000 Mar. 6-13.

Ephemeris:
2000 ES70                a,e,i = 1.80, 0.32, 25                  q = 1.2283
Date    TT    R. A. (2000) Decl.     Delta      r     Elong.  Phase     V
2000 03 07    11 45.51   -08 51.9    0.490    1.469   163.5    11.1    17.1
2000 03 12    11 42.46   -04 29.7    0.499    1.489   171.6     5.6    16.9
2000 03 17    11 39.48   -00 15.8    0.516    1.510   177.4     1.7    16.8
2000 03 22    11 36.82   +03 40.5    0.539    1.531   171.5     5.5    17.1
2000 03 27    11 34.65   +07 12.3    0.568    1.552   164.2    10.1    17.5
2000 04 01    11 33.14   +10 16.0    0.604    1.574   157.2    14.2    17.8
2000 04 06    11 32.37   +12 50.5    0.645    1.595   150.7    17.9    18.1
2000 04 11    11 32.40   +14 56.7    0.691    1.617   144.7    21.0    18.4
2000 04 16    11 33.25   +16 37.0    0.741    1.638   139.2    23.6    18.6
2000 04 21    11 34.87   +17 54.2    0.795    1.659   134.1    25.8    18.9
2000 04 26    11 37.21   +18 51.2    0.851    1.681   129.4    27.6    19.1
2000 05 01    11 40.20   +19 30.8    0.910    1.702   125.0    29.0    19.3
2000 05 06    11 43.81   +19 55.4    0.972    1.723   120.9    30.2    19.5
2000 05 11    11 47.97   +20 07.3    1.035    1.744   117.0    31.1    19.7
2000 05 16    11 52.61   +20 08.4    1.100    1.765   113.4    31.7    19.9

2000 05 26    12 03.11   +19 44.6    1.233    1.806   106.6    32.5    20.2
2000 06 05    12 14.93   +18 54.3    1.370    1.846   100.4    32.7    20.5
2000 06 15    12 27.81   +17 44.8    1.508    1.885    94.6    32.5    20.7
2000 06 25    12 41.48   +16 21.8    1.647    1.922    89.1    31.9    21.0
2000 07 05    12 55.80   +14 49.3    1.786    1.959    83.9    31.1    21.2
2000 07 15    13 10.67   +13 10.5    1.923    1.994    78.8    30.0    21.3
2000 07 25    13 26.00   +11 28.0    2.058    2.028    73.9    28.8    21.5
2000 08 04    13 41.74   +09 43.7    2.190    2.060    69.2    27.4    21.6
2000 08 14    13 57.86   +07 59.6    2.317    2.091    64.5    25.9    21.7

Gareth V. Williams           (C) Copyright 2000 MPC           M.P.E.C. 2000-E53

Read MPEC 2000-E52 Read MPEC 2000-E54


Our Web policy. Index to the CBAT/MPC/ICQ pages.


Valid HTML 4.01!